, AZ

(GMT )
Fort Huachuca

Weather History for KALK - October, 2012

Change the Weather History Date:

Wednesday, October 17, 2012

  Actual Average Record
Temperature  
Mean Temperature 66 °F -  
Max Temperature 82 °F - - ()
Min Temperature 50 °F - - ()
Cooling Degree Days 1    
Growing Degree Days 16 (Base 50)    
Moisture  
Dew Point 37 °F    
Average Humidity 38    
Maximum Humidity 67    
Minimum Humidity 17    
Precipitation  
Precipitation 0.00 in - - ()
Sea Level Pressure  
Sea Level Pressure 29.84 in    
Wind  
Wind Speed 7 mph (WSW)    
Max Wind Speed 10 mph    
Max Gust Speed 18 mph    
Averages and records for this station are not official NWS values.
T = Trace of Precipitation, MM = Missing Value Source: NWS Daily Summary

Daily Weather History Graph

Daily Weather History Graph

Search for Another Location

Airport or City:

Trip Planner

Search our weather history database for the weather conditions in past years. The results will help you decide how hot, cold, wet, or windy it might be!

Date:

Astronomy

Oct. 17, 2012 Rise Set
Actual Time 6:26 AM MST 5:46 PM MST
Civil Twilight 6:02 AM MST 6:11 PM MST
Nautical Twilight 5:33 AM MST 6:39 PM MST
Astronomical Twilight 5:05 AM MST 7:07 PM MST
Moon 8:53 AM MST (10/17) 7:37 PM MST (10/17)
Length of Visible Light 12h 09m
Length of Day
11h 20m
Waxing Crescent, 8% of the Moon is Illuminated
Oct 17
Waxing Crescent
Oct 21
First Quarter
Oct 29
Full
Nov 6
Last Quarter
Nov 13
New

Hourly Weather History & Observations

Time (MST) Temp. Dew Point Humidity Pressure Visibility Wind Dir Wind Speed Gust Speed Precip Events Conditions
12:56 AM 55.9 °F 30.0 °F 37% 29.79 in - West 5.8 mph - N/A   Clear
1:56 AM 54.0 °F 30.9 °F 41% 29.81 in - SW 8.1 mph - N/A   Clear
2:56 AM 51.1 °F 32.0 °F 48% 29.81 in - WSW 6.9 mph - N/A   Clear
3:56 AM 51.1 °F 30.9 °F 46% 29.81 in - West 8.1 mph - N/A   Clear
4:56 AM 52.0 °F 32.0 °F 47% 29.83 in - WSW 6.9 mph - N/A   Clear
5:56 AM 50.0 °F 34.0 °F 54% 29.85 in - WSW 8.1 mph - N/A   Clear
6:56 AM 55.9 °F 35.1 °F 45% 29.85 in - SW 9.2 mph - N/A   Clear
7:56 AM 63.0 °F 37.0 °F 38% 29.84 in - West 6.9 mph - N/A   Clear
8:56 AM 73.0 °F 36.0 °F 26% 29.84 in - East 5.8 mph - N/A   Clear
9:56 AM 75.0 °F 33.1 °F 22% 29.86 in - WNW 5.8 mph - N/A   Clear
10:56 AM 75.9 °F 33.1 °F 21% 29.85 in - Variable 3.5 mph - N/A   Clear
11:56 AM 77.0 °F 30.9 °F 19% 29.81 in - SSW 6.9 mph - N/A   Clear
12:56 PM 79.0 °F 30.0 °F 17% 29.80 in - Calm Calm - N/A   Clear
1:56 PM 81.0 °F 33.1 °F 18% 29.77 in - SW 8.1 mph - N/A   Clear
2:56 PM 82.0 °F 33.1 °F 17% 29.78 in - SE 9.2 mph - N/A   Clear
3:56 PM 81.0 °F 34.0 °F 18% 29.79 in - West 4.6 mph 18.4 mph N/A   Clear
4:56 PM 77.0 °F 30.9 °F 19% 29.81 in - NNW 8.1 mph - N/A   Clear
5:56 PM 73.0 °F 34.0 °F 24% 29.84 in - West 8.1 mph - N/A   Clear
6:56 PM 69.1 °F 43.0 °F 39% 29.87 in - WSW 8.1 mph - N/A   Partly Cloudy
7:56 PM 64.9 °F 51.1 °F 61% 29.89 in - WSW 9.2 mph - N/A   Clear
8:56 PM 66.0 °F 53.1 °F 63% 29.88 in - SW 10.4 mph - N/A   Clear
9:56 PM 64.9 °F 53.1 °F 65% 29.89 in - West 6.9 mph - N/A   Clear
10:56 PM 64.9 °F 53.1 °F 65% 29.89 in - West 6.9 mph - N/A   Partly Cloudy
11:56 PM 64.0 °F 53.1 °F 67% 29.90 in - WSW 8.1 mph - N/A   Clear